Home > Time Zones > World Clock > Weather > Togo > Lome > Past weeks

Flag for Togo Weather past 2 weeks in Lome, Togo

Now
79 °F

Passing clouds.


Feels Like: 82 °F
Forecast: N/A
Wind: 1 mph from North

Location: Lome Airport


UV Index: N/A

Visibility: N/A


Pressure: 29.77 "Hg

Humidity: 84%

Dew point: 73 °F

Location of LomeLocation

Historic Weather in Lome

°F

Lome temperature yesterday

Maximum temperature yesterday: 90 °F (at 11:30 AM)
Minimum temperature yesterday: 82 °F (at 2:00 AM)
Average temperature yesterday: 86 °F

Past Weeks' High & Low Weather Summary

 TemperatureHumidityPressure
High91 °F (Apr 8, 12:00 PM)94% (Apr 4, 7:00 AM)29.98 "Hg (Apr 4, 7:00 AM)
Low73 °F (Apr 10, 6:30 AM)59% (Apr 9, 1:30 PM)29.71 "Hg (Apr 18, 4:30 PM)
Average84 °F79%29.86 "Hg
* Reported Apr 3 7:00 PM — Apr 18 7:00 PM, Lome, Weather by CustomWeather, © 2014

Note: Actual official high and low records may vary slightly from our data, if they occured in-between our weather recording intervals... More about our weather records

Advertising

Historic Weather Conditions — Data for Previous 24 hours

 ConditionsComfort  
Time TempWeatherWind HumidityBarometerVisibility
7:00 PM
Apr 18
79 °FPassing clouds.No wind84%29.77 "HgN/A
6:30 PM79 °FPassing clouds.5 mph79%29.74 "HgN/A
6:00 PM79 °FPartly sunny.6 mph84%29.74 "HgN/A
5:30 PM81 °FPartly sunny.5 mph74%29.77 "HgN/A
5:00 PM81 °FPartly sunny.9 mph74%29.74 "HgN/A
4:30 PM79 °FThunderstorms. Scattered clouds.5 mph79%29.71 "HgN/A
4:00 PM79 °FThunderstorms. Scattered clouds.1 mph79%29.74 "HgN/A
3:30 PM79 °FThunderstorms. Broken clouds.5 mph79%29.77 "HgN/A
3:00 PM77 °FThunderstorms. Broken clouds.3 mph89%29.80 "HgN/A
2:30 PM77 °FThunderstorms. Broken clouds.9 mph83%29.83 "Hg5 mi
2:00 PM75 °FThunderstorms. Partly sunny.18 mph94%29.86 "Hg4 mi
1:30 PM88 °FScattered clouds.9 mph70%29.83 "HgN/A
1:00 PM88 °FScattered clouds.7 mph66%29.83 "HgN/A
12:30 PM90 °FScattered clouds.9 mph67%29.86 "HgN/A
12:00 PM90 °FScattered clouds.10 mph67%29.86 "HgN/A
11:30 AM90 °FScattered clouds.10 mph63%29.86 "HgN/A
11:00 AM90 °FScattered clouds.10 mph67%29.86 "HgN/A
10:30 AM88 °FScattered clouds.9 mph70%29.89 "HgN/A
10:00 AM88 °FScattered clouds.10 mph66%29.89 "HgN/A
9:30 AM88 °FScattered clouds.12 mph66%29.89 "HgN/A
9:00 AM86 °FPartly sunny.9 mph70%29.89 "HgN/A
8:30 AM86 °FPartly sunny.10 mph75%29.86 "HgN/A
8:00 AM86 °FScattered clouds.13 mph75%29.83 "HgN/A
7:30 AM84 °FScattered clouds.12 mph79%29.83 "HgN/A
7:00 AM84 °FPassing clouds.8 mph79%29.83 "HgN/A
6:30 AM82 °FPassing clouds.3 mph84%29.83 "Hg5 mi
6:00 AM82 °FPassing clouds.3 mph84%29.80 "Hg5 mi
5:30 AM82 °FPassing clouds.5 mph84%29.80 "Hg5 mi
5:00 AM82 °FPassing clouds.6 mph84%29.80 "Hg5 mi
4:30 AM82 °FPassing clouds.2 mph84%29.80 "HgN/A
4:00 AM82 °FPassing clouds.3 mph84%29.80 "HgN/A
3:30 AM82 °FPassing clouds.2 mph84%29.80 "HgN/A
3:00 AM84 °FPassing clouds.2 mph79%29.77 "HgN/A
2:30 AM84 °FPassing clouds.7 mph79%29.80 "HgN/A
2:00 AM84 °FPassing clouds.5 mph79%29.80 "HgN/A
1:30 AM84 °FPassing clouds.8 mph79%29.80 "HgN/A
1:00 AM84 °FPassing clouds.10 mph79%29.80 "HgN/A
12:30 AM84 °FPassing clouds.12 mph79%29.80 "HgN/A
12:00 AM84 °FPassing clouds.12 mph79%29.83 "HgN/A
11:30 PM
Apr 17
84 °FPassing clouds.9 mph79%29.83 "HgN/A
11:00 PM84 °FPassing clouds.12 mph79%29.83 "HgN/A
10:30 PM84 °FPassing clouds.12 mph79%29.86 "HgN/A
10:00 PM84 °FPassing clouds.12 mph79%29.86 "HgN/A
9:30 PM84 °FPassing clouds.10 mph79%29.83 "HgN/A
9:00 PM84 °FPassing clouds.10 mph74%29.80 "HgN/A
8:30 PM84 °FPassing clouds.10 mph74%29.80 "HgN/A
8:00 PM84 °FPassing clouds.12 mph70%29.77 "HgN/A
Weather by CustomWeather, © 2014

See weather overview